EW3084 Nora SE current weather conditions

sailwx.info

Wind from 256 at 8 knots gusting 20

Air temperature 6.1° C
Dewpoint 3.1° C

Last reported at 2019-Dec-05 22:05 UTC.
Time now 2019-Dec-05 22:51 UTC

Location: N 59°32' E 015°01'.
View on Google Maps.

See reports from other nearby stations

  
Tides and Currents Weather Stations Pressure Air Temp Water Temp Dewpoint Dewpoint Depression Visibility Wind Speed Wind Dir Waves Ship Positions
date/time (UTC)wind fromknots sea level pressurealtimeterstation pressurevisibilityair tempwater tempwave heightnotes
2019-Dec-05 22:05 256 8 gusting 20 6.1
2019-Dec-05 22:00 263 10 gusting 20 6.1
2019-Dec-05 21:55 263 9 gusting 20 6.1
2019-Dec-05 21:50 257 8 gusting 20 6.1
2019-Dec-05 21:45 256 7 gusting 19 6.1
2019-Dec-05 21:40 245 6 gusting 17 6.1
2019-Dec-05 21:35 247 6 gusting 20 6.1
2019-Dec-05 21:30 257 7 gusting 22 6.1
2019-Dec-05 21:25 262 8 gusting 22 6.1
2019-Dec-05 21:20 261 8 gusting 14 6.1
2019-Dec-05 21:15 257 6 gusting 13 6.1
2019-Dec-05 21:10 256 6 gusting 18 6.1
2019-Dec-05 21:05 257 8 gusting 18 6.1
2019-Dec-05 21:00 255 7 gusting 18 6.1
2019-Dec-05 20:55 247 7 gusting 18 6.1
2019-Dec-05 20:50 251 7 gusting 21 6.1
2019-Dec-05 20:45 259 6 gusting 21 6.1
2019-Dec-05 20:40 257 7 gusting 17 6.1
2019-Dec-05 20:35 261 8 gusting 21 6.1
2019-Dec-05 20:30 262 9 gusting 21 6.7
2019-Dec-05 20:25 261 11 gusting 21 6.7
2019-Dec-05 20:20 259 11 gusting 19 6.7
2019-Dec-05 20:15 257 11 gusting 22 6.7
2019-Dec-05 20:10 258 9 gusting 22 6.7
2019-Dec-05 20:05 261 11 gusting 25 6.7
2019-Dec-05 20:00 264 13 gusting 25 6.7
2019-Dec-05 19:55 261 11 gusting 25 6.7
2019-Dec-05 19:50 257 8 gusting 24 6.7
2019-Dec-05 19:45 260 8 gusting 20 6.7
2019-Dec-05 19:40 260 9 gusting 22 6.7
2019-Dec-05 19:35 256 12 gusting 24 6.7
2019-Dec-05 19:30 255 12 gusting 24 6.7
2019-Dec-05 19:25 260 10 gusting 20 6.7
2019-Dec-05 19:20 262 9 gusting 20 6.7
2019-Dec-05 19:15 258 10 gusting 20 6.7
2019-Dec-05 19:10 257 12 gusting 23 6.7
2019-Dec-05 19:05 263 13 gusting 28 6.7
2019-Dec-05 19:00 258 13 gusting 28 6.7
2019-Dec-05 18:55 253 12 gusting 22 6.7
2019-Dec-05 18:50 257 12 gusting 25 6.7
2019-Dec-05 18:45 256 11 gusting 25 6.7
2019-Dec-05 18:40 257 12 gusting 25 6.7
2019-Dec-05 18:35 250 13 gusting 25 6.7
2019-Dec-05 18:30 251 13 gusting 25 6.7
2019-Dec-05 18:25 258 13 gusting 26 6.7
2019-Dec-05 18:20 256 10 gusting 26 6.7
2019-Dec-05 18:15 256 10 gusting 24 6.7
2019-Dec-05 18:10 258 12 gusting 24 6.7
2019-Dec-05 18:05 263 13 gusting 29 6.7
2019-Dec-05 18:00 262 14 gusting 29 6.7
2019-Dec-05 17:55 256 14 gusting 29 6.7
2019-Dec-05 17:50 260 13 gusting 28 6.7
2019-Dec-05 17:45 260 12 gusting 25 6.7
2019-Dec-05 17:40 258 12 gusting 26 6.7
2019-Dec-05 17:35 256 11 gusting 26 6.7
2019-Dec-05 17:30 252 11 gusting 26 6.7
2019-Dec-05 17:25 256 12 gusting 21 6.7
2019-Dec-05 17:20 260 12 gusting 25 6.7
2019-Dec-05 17:15 260 11 gusting 25 6.7
2019-Dec-05 17:10 255 12 gusting 26 6.7
2019-Dec-05 17:05 257 12 gusting 28 6.7
2019-Dec-05 17:00 260 12 gusting 28 6.7
2019-Dec-05 16:55 258 10 gusting 23 6.7
2019-Dec-05 16:50 259 10 gusting 21 6.7
2019-Dec-05 16:45 257 12 gusting 28 6.7
2019-Dec-05 16:40 257 12 gusting 28 6.7
2019-Dec-05 16:35 258 13 gusting 22 6.7
2019-Dec-05 16:30 259 12 gusting 29 6.7
2019-Dec-05 16:25 256 12 gusting 29 6.7
2019-Dec-05 16:20 254 12 gusting 23 6.7
2019-Dec-05 16:15 256 11 gusting 26 6.7
2019-Dec-05 16:10 255 12 gusting 26 6.7
2019-Dec-05 16:05 259 12 gusting 25 6.7
2019-Dec-05 16:00 260 11 gusting 23 6.7
2019-Dec-05 15:55 255 11 gusting 23 6.1
2019-Dec-05 15:50 257 11 gusting 26 6.1
2019-Dec-05 15:45 260 12 gusting 26 6.1
2019-Dec-05 15:40 259 11 gusting 23 6.1
2019-Dec-05 15:35 260 9 gusting 22 6.1
2019-Dec-05 15:30 262 9 gusting 22 6.1
2019-Dec-05 15:25 257 9 gusting 22 6.1
2019-Dec-05 15:20 255 9 gusting 22 6.7
2019-Dec-05 15:15 261 11 gusting 23 6.7
2019-Dec-05 15:10 261 13 gusting 25 6.7
2019-Dec-05 15:05 260 12 gusting 28 6.7
2019-Dec-05 15:00 264 12 gusting 28 6.7
2019-Dec-05 14:55 262 13 gusting 26 6.7
2019-Dec-05 14:50 258 13 gusting 26 6.7
2019-Dec-05 14:45 258 13 gusting 23 6.7
2019-Dec-05 14:40 253 13 gusting 28 6.7
2019-Dec-05 14:35 253 13 gusting 31 6.7
2019-Dec-05 14:30 254 11 gusting 31 6.7
2019-Dec-05 14:25 252 11 gusting 25 6.1
2019-Dec-05 14:20 254 12 gusting 26 6.7
2019-Dec-05 14:15 260 13 gusting 26 6.7
2019-Dec-05 14:10 259 13 gusting 25 6.1
2019-Dec-05 14:05 257 13 gusting 25 6.1
2019-Dec-05 14:00 257 11 gusting 25 6.1
2019-Dec-05 13:55 254 11 gusting 24 6.1
2019-Dec-05 13:50 259 10 gusting 22 6.1
2019-Dec-05 13:45 264 13 gusting 22 6.1
2019-Dec-05 13:40 261 12 gusting 25 6.7
2019-Dec-05 13:35 261 13 gusting 25 6.1
2019-Dec-05 13:30 263 13 gusting 22 6.1
2019-Dec-05 13:25 263 11 gusting 22 6.1
2019-Dec-05 13:20 255 11 gusting 21 6.1
2019-Dec-05 13:15 252 12 gusting 29 6.1
2019-Dec-05 13:10 260 12 gusting 29 6.1
2019-Dec-05 13:05 263 13 gusting 28 6.1
2019-Dec-05 13:00 259 12 gusting 28 6.1
2019-Dec-05 12:55 258 11 gusting 25 6.1
2019-Dec-05 12:50 262 12 gusting 25 6.1
2019-Dec-05 12:45 264 12 gusting 23 6.1
2019-Dec-05 12:40 264 13 gusting 26 6.1
2019-Dec-05 12:35 260 14 gusting 26 6.1
2019-Dec-05 12:30 258 13 gusting 26 6.1
2019-Dec-05 12:25 259 13 gusting 26 6.1
2019-Dec-05 12:20 255 12 gusting 26 5.6
2019-Dec-05 12:15 258 11 gusting 26 5.6
2019-Dec-05 12:10 266 11 gusting 25 5.6
2019-Dec-05 12:05 263 11 gusting 30 5.6
2019-Dec-05 12:00 255 10 gusting 30 6.1
2019-Dec-05 11:55 256 10 gusting 20 6.1
2019-Dec-05 11:50 254 9 gusting 19 6.1
2019-Dec-05 11:45 256 10 gusting 26 6.1
2019-Dec-05 11:40 261 10 gusting 26 6.1
2019-Dec-05 11:35 260 13 gusting 27 6.1
2019-Dec-05 11:30 256 13 gusting 27 6.7
2019-Dec-05 11:25 252 12 gusting 27 6.7
2019-Dec-05 11:20 260 13 gusting 29 6.7
2019-Dec-05 11:15 264 12 gusting 29 6.7
2019-Dec-05 11:10 261 11 gusting 24 6.7
2019-Dec-05 11:05 261 12 gusting 21 6.1
2019-Dec-05 11:00 262 10 gusting 21 6.1
2019-Dec-05 10:55 261 11 gusting 26 6.1
2019-Dec-05 10:50 260 12 gusting 26 6.1
2019-Dec-05 10:45 259 11 gusting 19 6.1
2019-Dec-05 10:40 258 10 gusting 19 6.1
2019-Dec-05 10:35 262 11 gusting 22 6.7
2019-Dec-05 10:30 265 10 gusting 25 6.7
2019-Dec-05 10:25 257 9 gusting 25 6.1
2019-Dec-05 10:20 250 10 gusting 25 6.1
2019-Dec-05 10:15 254 10 gusting 25 6.1
2019-Dec-05 10:10 256 9 gusting 21 6.1
2019-Dec-05 10:05 254 8 gusting 21 6.7
2019-Dec-05 10:00 261 9 gusting 21 6.7
2019-Dec-05 09:55 262 10 gusting 21 6.7
2019-Dec-05 09:50 266 11 gusting 21 6.7
2019-Dec-05 09:45 266 10 gusting 21 6.7
2019-Dec-05 09:40 261 8 gusting 21 6.1
2019-Dec-05 09:35 260 9 gusting 21 6.1
2019-Dec-05 09:30 259 8 gusting 18 6.1
2019-Dec-05 09:25 260 7 gusting 24 6.1
2019-Dec-05 09:20 258 8 gusting 24 6.7
2019-Dec-05 09:15 259 9 gusting 19 6.7
2019-Dec-05 09:10 259 7 gusting 19 6.7
2019-Dec-05 09:05 257 7 gusting 20 6.7
2019-Dec-05 09:00 262 9 gusting 20 6.7
2019-Dec-05 08:55 263 9 gusting 19 6.7
2019-Dec-05 08:50 259 8 gusting 19 6.7
2019-Dec-05 08:45 261 6 gusting 17 6.7
2019-Dec-05 08:40 262 8 gusting 20 6.7
2019-Dec-05 08:35 262 8 gusting 20 6.7
2019-Dec-05 08:30 261 8 gusting 19 6.7
2019-Dec-05 08:25 259 10 gusting 19 6.7
2019-Dec-05 08:20 263 9 gusting 19 6.7
2019-Dec-05 08:15 266 11 gusting 25 6.7
2019-Dec-05 08:10 265 12 gusting 25 6.7
2019-Dec-05 08:05 260 11 gusting 23 6.7
2019-Dec-05 08:00 256 11 gusting 23 6.7
2019-Dec-05 07:55 258 11 gusting 23 6.7
2019-Dec-05 07:50 260 11 gusting 23 6.7
2019-Dec-05 07:45 257 10 gusting 23 6.7
2019-Dec-05 07:40 257 11 gusting 21 6.7
2019-Dec-05 07:35 259 11 gusting 21 6.7
2019-Dec-05 07:30 262 9 gusting 19 6.7
2019-Dec-05 07:25 261 9 gusting 19 6.7
2019-Dec-05 07:20 260 9 gusting 22 6.7
2019-Dec-05 07:15 261 7 gusting 22 6.7
2019-Dec-05 07:10 258 7 gusting 16 6.7
2019-Dec-05 07:05 259 8 gusting 16 6.7
2019-Dec-05 07:00 257 9 gusting 19 6.7
2019-Dec-05 06:55 252 9 gusting 19 6.7
2019-Dec-05 06:50 258 9 gusting 18 6.7
2019-Dec-05 06:45 261 9 gusting 18 6.7
2019-Dec-05 06:40 259 6 gusting 16 6.7
2019-Dec-05 06:35 264 7 gusting 16 6.7
2019-Dec-05 06:30 263 8 gusting 22 6.7
2019-Dec-05 06:25 260 9 gusting 22 6.7
2019-Dec-05 06:20 264 9 gusting 19 6.7
2019-Dec-05 06:15 264 9 gusting 19 6.7
2019-Dec-05 06:10 265 8 gusting 18 6.7
2019-Dec-05 06:05 264 8 gusting 17 6.7
2019-Dec-05 06:00 265 8 gusting 19 6.7
2019-Dec-05 05:55 270 6 gusting 19 6.7
2019-Dec-05 05:50 272 6 gusting 18 6.7
2019-Dec-05 05:45 269 6 gusting 14 6.7
2019-Dec-05 05:40 262 6 gusting 14 6.7
2019-Dec-05 05:35 262 6 gusting 14 6.7
2019-Dec-05 05:30 261 6 gusting 15 6.7
2019-Dec-05 05:25 257 7 gusting 18 6.7
2019-Dec-05 05:20 260 6 gusting 18 6.7
2019-Dec-05 05:15 261 6 gusting 15 6.7
2019-Dec-05 05:10 260 6 gusting 14 6.7
2019-Dec-05 05:05 260 6 gusting 15 6.7
2019-Dec-05 05:00 256 6 gusting 15 6.7
2019-Dec-05 04:55 255 7 gusting 17 6.7
2019-Dec-05 04:50 254 6 gusting 17 6.7
2019-Dec-05 04:45 260 6 gusting 13 6.7
2019-Dec-05 04:40 254 7 gusting 17 6.7
2019-Dec-05 04:35 253 7 gusting 17 6.7
2019-Dec-05 04:30 260 6 gusting 14 6.7
2019-Dec-05 04:25 258 6 gusting 18 6.7
2019-Dec-05 04:20 258 6 gusting 18 6.7
2019-Dec-05 04:15 253 6 gusting 18 6.7
2019-Dec-05 04:10 256 7 gusting 19 6.7
2019-Dec-05 04:05 264 7 gusting 19 6.7
2019-Dec-05 04:00 269 6 gusting 16 6.7
2019-Dec-05 03:55 263 7 gusting 19 6.7
2019-Dec-05 03:50 258 9 gusting 20 6.7
2019-Dec-05 03:45 264 10 gusting 20 6.7
2019-Dec-05 03:40 266 9 gusting 19 6.7
2019-Dec-05 03:35 269 8 gusting 16 6.7
2019-Dec-05 03:30 270 7 gusting 16 6.7
2019-Dec-05 03:25 263 7 gusting 19 6.7
2019-Dec-05 03:20 266 8 gusting 19 6.7
2019-Dec-05 03:15 265 7 gusting 19 6.7
2019-Dec-05 03:10 260 7 gusting 19 6.1
2019-Dec-05 03:05 263 9 gusting 19 6.1
2019-Dec-05 03:00 264 10 gusting 18 6.1
2019-Dec-05 02:55 263 10 gusting 19 6.1
2019-Dec-05 02:50 263 8 gusting 19 6.1
2019-Dec-05 02:45 262 7 gusting 17 6.1
2019-Dec-05 02:40 258 8 gusting 17 6.1
2019-Dec-05 02:35 259 8 gusting 16 6.1
2019-Dec-05 02:30 261 9 gusting 19 6.1
2019-Dec-05 02:25 261 11 gusting 21 6.1
2019-Dec-05 02:20 261 9 gusting 21 6.1
2019-Dec-05 02:15 258 8 gusting 19 6.1
2019-Dec-05 02:10 258 8 gusting 18 6.1
2019-Dec-05 02:05 264 8 gusting 20 6.1
2019-Dec-05 02:00 265 8 gusting 20 6.1
2019-Dec-05 01:55 255 8 gusting 19 6.1
2019-Dec-05 01:50 249 7 gusting 17 6.1
2019-Dec-05 01:45 256 7 gusting 17 6.1
2019-Dec-05 01:40 256 8 gusting 19 6.1
2019-Dec-05 01:35 254 9 gusting 19 6.1
2019-Dec-05 01:30 260 9 gusting 19 6.1
2019-Dec-05 01:25 265 8 gusting 19 6.1
2019-Dec-05 01:20 263 7 gusting 18 6.1
2019-Dec-05 01:15 259 7 gusting 18 6.1
2019-Dec-05 01:10 260 8 gusting 21 6.1
2019-Dec-05 01:05 258 11 gusting 26 6.1
2019-Dec-05 01:00 257 12 gusting 26 6.1
2019-Dec-05 00:55 259 10 gusting 25 6.1
2019-Dec-05 00:50 258 10 gusting 19 6.1
2019-Dec-05 00:45 258 10 gusting 19 6.1
2019-Dec-05 00:40 256 10 gusting 20 6.1
2019-Dec-05 00:35 257 11 gusting 22 6.1
2019-Dec-05 00:30 260 10 gusting 22 6.1
2019-Dec-05 00:25 261 10 gusting 22 6.1
2019-Dec-05 00:20 261 11 gusting 22 6.1
2019-Dec-05 00:15 259 11 gusting 22 6.1
2019-Dec-05 00:10 258 11 gusting 22 6.1
2019-Dec-05 00:05 258 11 gusting 19 6.1
2019-Dec-05 00:00 256 10 gusting 19 6.1
2019-Dec-04 23:55 259 10 gusting 24 6.1
2019-Dec-04 23:50 259 11 gusting 24 6.1
2019-Dec-04 23:45 259 11 gusting 20 6.1
2019-Dec-04 23:40 259 13 gusting 26 6.1
2019-Dec-04 23:35 260 13 gusting 26 6.1
2019-Dec-04 23:30 262 11 gusting 26 6.1
2019-Dec-04 23:25 261 12 gusting 26 6.1
2019-Dec-04 23:20 263 11 gusting 25 6.1
2019-Dec-04 23:15 264 11 gusting 21 5.6
2019-Dec-04 23:10 263 12 gusting 25 5.6
2019-Dec-04 23:05 265 12 gusting 25 5.6
2019-Dec-04 23:00 266 12 gusting 23 5.6
2019-Dec-04 22:55 261 10 gusting 24 5.6
2019-Dec-04 22:50 259 11 gusting 26 5.6
2019-Dec-04 22:45 255 12 gusting 26 5.6
2019-Dec-04 22:40 258 11 gusting 25 5.6
2019-Dec-04 22:35 261 10 gusting 18 5.6
2019-Dec-04 22:30 258 10 gusting 24 5.6
2019-Dec-04 22:25 260 9 gusting 24 5.6
2019-Dec-04 22:20 259 8 gusting 19 5.6
2019-Dec-04 22:15 265 9 gusting 20 5.6
2019-Dec-04 22:10 263 9 gusting 20 5.6
2019-Dec-04 22:05 262 8 gusting 19 5.6
2019-Dec-04 22:00 267 9 gusting 20 5.6
2019-Dec-04 21:55 269 11 gusting 23 5.6
2019-Dec-04 21:50 266 12 gusting 23 5.6
2019-Dec-04 21:45 263 10 gusting 22 5.6
2019-Dec-04 21:40 262 9 gusting 20 5.6
2019-Dec-04 21:35 262 10 gusting 20 5.6
2019-Dec-04 21:30 262 9 gusting 21 5.0
2019-Dec-04 21:25 256 8 gusting 21 5.0
2019-Dec-04 21:20 254 9 gusting 19 5.0
2019-Dec-04 21:15 256 9 gusting 17 5.0
2019-Dec-04 21:10 259 8 gusting 17 5.0
2019-Dec-04 21:05 258 7 gusting 17 5.0
2019-Dec-04 21:00 255 7 gusting 15 5.0
2019-Dec-04 20:55 257 7 gusting 19 5.0
2019-Dec-04 20:50 262 7 gusting 19 5.0
2019-Dec-04 20:45 262 7 gusting 18 5.0
2019-Dec-04 20:40 259 6 gusting 18 5.0
2019-Dec-04 20:35 258 6 gusting 15 4.4
2019-Dec-04 20:30 257 7 gusting 14 5.0
2019-Dec-04 20:25 257 8 gusting 15 5.0
2019-Dec-04 20:20 259 7 gusting 15 5.0
2019-Dec-04 20:15 259 6 gusting 14 5.0
2019-Dec-04 20:10 257 7 gusting 15 5.0
2019-Dec-04 20:05 256 6 gusting 15 5.0
2019-Dec-04 20:00 259 6 gusting 15 4.4
2019-Dec-04 19:55 260 8 gusting 15 5.0
2019-Dec-04 19:50 257 8 gusting 16 5.0
2019-Dec-04 19:45 256 8 gusting 16 5.0
2019-Dec-04 19:40 261 9 gusting 16 5.0
2019-Dec-04 19:35 261 9 gusting 20 5.0
2019-Dec-04 19:30 262 9 gusting 20 5.0
2019-Dec-04 19:25 264 10 gusting 20 5.0
2019-Dec-04 19:20 261 11 gusting 20 5.0
2019-Dec-04 19:15 261 11 gusting 21 5.0
2019-Dec-04 19:10 259 11 gusting 26 5.0
2019-Dec-04 19:05 256 10 gusting 26 5.0
2019-Dec-04 19:00 257 9 gusting 26 5.0
2019-Dec-04 18:55 262 9 gusting 20 5.0
2019-Dec-04 18:50 264 10 gusting 20 5.0
2019-Dec-04 18:45 263 9 gusting 18 5.0
2019-Dec-04 18:40 265 8 gusting 18 5.0
2019-Dec-04 18:35 265 7 gusting 18 5.0
2019-Dec-04 18:25 258 8 gusting 19 5.0
2019-Dec-04 18:20 258 8 gusting 19 5.0
2019-Dec-04 18:15 263 8 gusting 19 5.0
2019-Dec-04 18:10 264 8 gusting 16 5.0
2019-Dec-04 18:05 258 8 gusting 17 5.0
2019-Dec-04 18:00 258 9 gusting 17 5.0
2019-Dec-04 17:55 261 8 gusting 16 5.0
2019-Dec-04 17:50 261 8 gusting 18 5.0
2019-Dec-04 17:45 260 9 gusting 18 5.0
2019-Dec-04 17:40 259 10 gusting 20 5.0
2019-Dec-04 17:35 257 9 gusting 20 5.0
2019-Dec-04 17:30 259 9 gusting 19 5.0
2019-Dec-04 17:25 263 8 gusting 16 5.0
2019-Dec-04 17:10 264 9 gusting 19 5.0
2019-Dec-04 17:05 266 8 gusting 19 5.0
2019-Dec-04 17:00 269 8 gusting 17 5.0
2019-Dec-04 16:55 267 8 gusting 17 5.0
2019-Dec-04 16:50 261 8 gusting 16 5.0
2019-Dec-04 16:45 266 8 gusting 16 5.0
2019-Dec-04 16:40 273 7 gusting 15 5.0
2019-Dec-04 16:35 274 8 gusting 18 5.0
2019-Dec-04 16:30 274 8 gusting 18 5.0
2019-Dec-04 16:25 277 9 gusting 20 5.0
2019-Dec-04 16:20 275 10 gusting 21 5.0
2019-Dec-04 16:15 272 9 gusting 21 5.0
2019-Dec-04 16:10 278 8 gusting 19 5.0
2019-Dec-04 16:05 282 7 gusting 17 5.0
2019-Dec-04 16:00 279 7 gusting 17 5.0
2019-Dec-04 15:55 279 8 gusting 17 5.0
2019-Dec-04 15:50 272 6 gusting 16 5.0
2019-Dec-04 15:40 276 8 gusting 17 5.0
2019-Dec-04 15:35 270 6 gusting 15 5.0
2019-Dec-04 15:30 269 6 gusting 16 4.4
2019-Dec-04 15:25 271 6 gusting 20 4.4
2019-Dec-04 15:20 271 6 gusting 20 4.4
2019-Dec-04 15:15 265 6 gusting 16 4.4
2019-Dec-04 15:10 270 6 gusting 16 4.4
2019-Dec-04 15:05 277 5 gusting 13 4.4
2019-Dec-04 15:00 271 5 gusting 12 4.4
2019-Dec-04 14:55 276 6 gusting 13 4.4
2019-Dec-04 14:50 280 6 gusting 14 4.4
2019-Dec-04 14:45 279 6 gusting 14 4.4
2019-Dec-04 14:40 277 6 gusting 13 4.4
2019-Dec-04 14:35 276 6 gusting 12 4.4
2019-Dec-04 14:30 273 6 gusting 12 4.4
2019-Dec-04 14:25 271 5 gusting 11 4.4
2019-Dec-04 14:20 272 6 gusting 11 4.4
2019-Dec-04 14:15 270 6 gusting 11 4.4
2019-Dec-04 14:10 270 6 gusting 14 4.4
2019-Dec-04 14:05 275 7 gusting 14 4.4
2019-Dec-04 14:00 279 8 gusting 15 4.4
2019-Dec-04 13:55 278 9 gusting 17 4.4
2019-Dec-04 13:50 275 9 gusting 17 4.4
2019-Dec-04 13:45 275 8 gusting 17 4.4
2019-Dec-04 13:40 275 7 gusting 14 4.4
2019-Dec-04 13:35 273 7 gusting 15 4.4
2019-Dec-04 13:30 274 6 gusting 15 4.4
2019-Dec-04 13:25 271 6 gusting 14 4.4
2019-Dec-04 13:20 270 6 gusting 14 4.4
2019-Dec-04 13:15 273 5 gusting 12 4.4
2019-Dec-04 13:10 270 6 gusting 14 4.4
2019-Dec-04 13:05 270 6 gusting 15 4.4
2019-Dec-04 13:00 270 6 gusting 15 4.4
2019-Dec-04 12:55 269 5 gusting 12 4.4
2019-Dec-04 12:50 270 5 gusting 12 4.4
2019-Dec-04 12:45 268 6 gusting 13 4.4
2019-Dec-04 12:40 268 6 gusting 13 4.4
2019-Dec-04 12:35 270 7 gusting 16 4.4
2019-Dec-04 12:30 268 8 gusting 16 4.4
2019-Dec-04 12:25 267 7 gusting 16 4.4
2019-Dec-04 12:20 269 7 gusting 16 4.4
2019-Dec-04 12:15 264 7 gusting 16 4.4
2019-Dec-04 12:10 261 7 gusting 14 4.4
2019-Dec-04 12:05 261 6 gusting 14 4.4
2019-Dec-04 12:00 260 6 gusting 16 4.4
2019-Dec-04 11:55 266 6 gusting 16 4.4
2019-Dec-04 11:50 272 6 gusting 13 4.4
2019-Dec-04 11:45 270 6 gusting 14 4.4
2019-Dec-04 11:40 262 7 gusting 14 4.4
2019-Dec-04 11:35 257 6 gusting 13 4.4
2019-Dec-04 11:30 262 6 gusting 13 4.4
2019-Dec-04 11:25 267 4 gusting 11 4.4
2019-Dec-04 11:20 269 4 gusting 14 3.9
2019-Dec-04 11:15 266 5 gusting 14 3.9
2019-Dec-04 11:10 264 5 gusting 12 3.9
2019-Dec-04 11:05 259 6 gusting 13 3.9
2019-Dec-04 11:00 259 6 gusting 14 3.9
2019-Dec-04 10:55 264 5 gusting 14 3.9
2019-Dec-04 10:50 264 4 gusting 10 3.9
2019-Dec-04 10:45 267 4 gusting 10 3.9
2019-Dec-04 10:40 268 5 gusting 10 3.9
2019-Dec-04 10:35 263 5 gusting 10 3.9
2019-Dec-04 10:30 262 3 gusting 10 3.9
2019-Dec-04 10:25 266 3 gusting 10 3.9
2019-Dec-04 10:20 264 4 gusting 13 3.9
2019-Dec-04 10:15 267 4 gusting 13 3.9
2019-Dec-04 10:10 264 4 gusting 12 3.9
2019-Dec-04 10:05 254 5 gusting 10 3.9
2019-Dec-04 10:00 259 6 gusting 13 3.9
2019-Dec-04 09:55 258 7 gusting 15 3.9
2019-Dec-04 09:50 258 7 gusting 15 3.9
2019-Dec-04 09:45 264 6 gusting 13 3.3
2019-Dec-04 09:40 263 6 gusting 13 3.3
2019-Dec-04 09:35 263 6 gusting 13 3.3
2019-Dec-04 09:30 265 6 gusting 16 3.3
2019-Dec-04 09:25 258 6 gusting 16 3.3
2019-Dec-04 09:20 260 6 gusting 14 3.3
2019-Dec-04 09:15 264 6 gusting 14 3.3
2019-Dec-04 09:10 260 6 gusting 13 3.3
2019-Dec-04 09:05 257 6 gusting 13 3.3
2019-Dec-04 09:00 266 5 gusting 12 3.3
2019-Dec-04 08:55 270 5 gusting 13 3.3
2019-Dec-04 08:50 260 5 gusting 13 3.3
2019-Dec-04 08:45 267 4 gusting 9 3.3
2019-Dec-04 08:40 270 4 gusting 8 3.3
2019-Dec-04 08:35 263 4 gusting 13 3.3
2019-Dec-04 08:30 262 5 gusting 13 3.3
2019-Dec-04 08:25 264 4 gusting 12 3.3
2019-Dec-04 08:20 265 3 gusting 7 3.3
2019-Dec-04 08:15 267 2 gusting 7 2.8
2019-Dec-04 08:10 271 3 gusting 9 2.8
2019-Dec-04 08:05 271 4 gusting 9 2.8
2019-Dec-04 08:00 271 4 gusting 8 2.8
2019-Dec-04 07:55 271 3 gusting 8 2.8
2019-Dec-04 07:50 275 3 gusting 10 2.8
2019-Dec-04 07:45 270 4 gusting 10 2.8
2019-Dec-04 07:40 268 4 gusting 9 2.8
2019-Dec-04 07:35 270 3 gusting 10 2.2
2019-Dec-04 07:30 265 3 gusting 10 2.2
2019-Dec-04 07:25 268 2 gusting 9 2.2
2019-Dec-04 07:20 278 2 gusting 7 2.2
2019-Dec-04 07:15 279 2 gusting 7 2.2
2019-Dec-04 07:10 277 2 gusting 5 2.2
2019-Dec-04 07:05 281 2 gusting 5 2.2
2019-Dec-04 07:00 285 2 gusting 7 2.2
2019-Dec-04 06:55 278 3 gusting 11 2.2
2019-Dec-04 06:50 275 4 gusting 11 2.2
2019-Dec-04 06:45 270 4 gusting 10 2.2
2019-Dec-04 06:40 266 4 gusting 9 2.2
2019-Dec-04 06:35 265 3 gusting 9 2.2
2019-Dec-04 06:30 268 3 gusting 7 2.2
2019-Dec-04 06:25 277 3 gusting 8 2.8
2019-Dec-04 06:20 271 4 gusting 9 2.8
2019-Dec-04 06:15 270 4 gusting 9 2.8
2019-Dec-04 06:10 272 3 gusting 8 2.2
2019-Dec-04 06:05 278 3 gusting 7 2.2
2019-Dec-04 06:00 282 4 gusting 9 2.8
2019-Dec-04 05:55 281 5 gusting 9 2.8
2019-Dec-04 05:50 283 4 gusting 9 2.2
2019-Dec-04 05:45 282 2 gusting 7 2.2
2019-Dec-04 05:40 279 2 gusting 7 2.2
2019-Dec-04 05:35 280 2 gusting 4 2.2
2019-Dec-04 05:30 282 2 gusting 4 2.2
2019-Dec-04 05:25 281 3 gusting 6 2.2
2019-Dec-04 05:20 282 2 gusting 6 2.2
2019-Dec-04 05:15 284 1 gusting 3 2.2
2019-Dec-04 05:10 287 1 gusting 4 2.2
2019-Dec-04 05:05 294 0 gusting 4 1.7
2019-Dec-04 05:00 293 0 gusting 3 2.2
2019-Dec-04 04:55 279 0 gusting 3 2.2
2019-Dec-04 04:50 281 0 gusting 4 2.2
2019-Dec-04 04:45 285 0 gusting 4 2.2
2019-Dec-04 04:40 283 0 gusting 4 2.2
2019-Dec-04 04:35 280 1 gusting 5 2.2
2019-Dec-04 04:30 274 2 gusting 7 2.2
2019-Dec-04 04:25 271 2 gusting 7 2.2
2019-Dec-04 04:20 275 1 gusting 5 2.2
2019-Dec-04 04:15 278 1 gusting 5 2.2
2019-Dec-04 04:10 277 2 gusting 8 2.2
2019-Dec-04 04:05 274 3 gusting 8 2.2
2019-Dec-04 04:00 271 3 gusting 6 2.2
2019-Dec-04 03:55 270 2 gusting 8 2.2
2019-Dec-04 03:50 266 2 gusting 8 2.2
2019-Dec-04 03:45 268 1 gusting 4 2.2
2019-Dec-04 03:40 273 0 gusting 4 2.2
2019-Dec-04 03:35 2.2
2019-Dec-04 03:30 286 0 gusting 3 2.2
2019-Dec-04 03:25 284 0 gusting 3 2.2
2019-Dec-04 03:20 285 1 gusting 6 2.2
2019-Dec-04 03:15 282 1 gusting 6 2.2
2019-Dec-04 03:10 275 1 gusting 5 2.2
2019-Dec-04 03:05 270 0 gusting 5 2.2
2019-Dec-04 03:00 263 0 gusting 4 2.2
2019-Dec-04 02:55 271 0 gusting 4 2.2
2019-Dec-04 02:50 286 1 gusting 4 2.2
2019-Dec-04 02:45 294 1 gusting 4 2.2
2019-Dec-04 02:40 290 1 gusting 4 2.2
2019-Dec-04 02:35 281 2 gusting 6 2.2
2019-Dec-04 02:30 278 3 gusting 6 2.2
2019-Dec-04 02:25 275 2 gusting 7 2.2
2019-Dec-04 02:20 274 1 gusting 7 2.2
2019-Dec-04 02:15 290 0 gusting 4 2.2
2019-Dec-04 02:10 290 1 gusting 6 2.2
2019-Dec-04 02:05 286 2 gusting 7 2.2
2019-Dec-04 02:00 279 2 gusting 7 2.2
2019-Dec-04 01:55 278 3 gusting 8 2.2
2019-Dec-04 01:50 276 3 gusting 12 2.2
2019-Dec-04 01:45 270 3 gusting 12 2.2
2019-Dec-04 01:40 272 3 gusting 9 2.2
2019-Dec-04 01:35 281 2 gusting 9 2.2
2019-Dec-04 01:30 287 1 gusting 6 2.2
2019-Dec-04 01:25 288 2 gusting 6 2.2
2019-Dec-04 01:20 285 3 gusting 6 2.2
2019-Dec-04 01:15 284 3 gusting 7 2.2
2019-Dec-04 01:10 284 3 gusting 7 2.2
2019-Dec-04 01:05 280 3 gusting 8 2.2
2019-Dec-04 01:00 275 2 gusting 8 1.7
2019-Dec-04 00:55 270 1 gusting 6 1.7
2019-Dec-04 00:50 276 2 gusting 6 1.7
2019-Dec-04 00:45 285 3 gusting 8 1.7
2019-Dec-04 00:40 290 3 gusting 8 1.7
2019-Dec-04 00:35 291 4 gusting 11 1.7
2019-Dec-04 00:30 287 5 gusting 11 1.7
2019-Dec-04 00:25 287 5 gusting 10 1.7
2019-Dec-04 00:20 284 5 gusting 10 1.7
2019-Dec-04 00:15 281 5 gusting 10 1.7
2019-Dec-04 00:10 285 5 gusting 9 1.7
2019-Dec-04 00:05 286 4 gusting 9 1.7
2019-Dec-04 00:00 283 4 gusting 11 2.2
2019-Dec-03 23:55 279 4 gusting 11 2.2
2019-Dec-03 23:50 279 4 gusting 11 2.2
2019-Dec-03 23:45 280 5 gusting 11 2.2
2019-Dec-03 23:40 279 5 gusting 10 2.2
2019-Dec-03 23:35 281 6 gusting 11 2.2
2019-Dec-03 23:30 283 5 gusting 11 2.2
2019-Dec-03 23:25 278 5 gusting 11 2.2
2019-Dec-03 23:20 275 3 gusting 11 2.2
2019-Dec-03 23:15 278 2 gusting 8 2.2
2019-Dec-03 23:10 273 2 gusting 5 2.2
2019-Dec-03 23:05 258 2 gusting 6 2.2
2019-Dec-03 23:00 257 2 gusting 6 2.2
2019-Dec-03 22:55 267 2 gusting 8 2.2
2019-Dec-03 22:50 265 2 gusting 8 2.2
2019-Dec-03 22:45 264 3 gusting 6 2.2
2019-Dec-03 22:40 265 2 gusting 6 2.2
2019-Dec-03 22:35 268 2 gusting 6 2.2
2019-Dec-03 22:30 269 3 gusting 7 2.2
2019-Dec-03 22:25 272 4 gusting 8 2.2
2019-Dec-03 22:20 277 4 gusting 10 2.2
2019-Dec-03 22:15 283 4 gusting 10 2.2
2019-Dec-03 22:10 288 4 gusting 6 1.7
2019-Dec-03 22:05 291 4 gusting 8 1.7
2019-Dec-03 22:00 290 4 gusting 8 1.7